Weather History for Frenchville, ME

Change the Weather History Date:

Sunday, March 10, 2013

  Actual Average Record
Temperature  
Mean Temperature 27 °F 21 °F  
Max Temperature 33 °F 30 °F 45 °F (1998)
Min Temperature 21 °F 13 °F -11 °F (2003)
Degree Days  
Heating Degree Days 38    
Month to date heating degree days 343  
Since 1 July heating degree days 6833  
Cooling Degree Days 0    
Month to date cooling degree days 0  
Year to date cooling degree days 0  
Moisture  
Dew Point 20 °F    
Average Humidity 79    
Maximum Humidity 96    
Minimum Humidity 60    
Precipitation  
Precipitation 0.00 in 0.03 in 0.60 in (2002)
Month to date precipitation 0.13 0.33  
Year to date precipitation 2.35 2.90  
Sea Level Pressure  
Sea Level Pressure 30.30 in    
Wind  
Wind Speed 9 mph (SE)    
Max Wind Speed 17 mph    
Max Gust Speed 23 mph    
Visibility 10 miles    
Events      
T = Trace of Precipitation, MM = Missing Value Source: NWS Daily Summary

Daily Weather History Graph

Daily Weather History Graph

Search for Another Location

Airport:

Trip Planner

Search our weather history database for the weather conditions in past years. The results will help you decide how hot, cold, wet, or windy it might be!

Date:

Astronomy

Mar. 10, 2013 Rise Set
Actual Time 6:55 AM EDT 6:31 PM EDT
Civil Twilight 6:25 AM EDT 7:02 PM EDT
Nautical Twilight 5:49 AM EDT 7:38 PM EDT
Astronomical Twilight 5:13 AM EDT 8:14 PM EDT
Moon 5:56 AM EDT (3/10) 5:35 PM EDT (3/10)
Length of Visible Light 12h 37m
Length of Day
11h 36m
Waning Crescent, 2% of the Moon is Illuminated
Mar 10
Waning Crescent
Mar 11
New
Mar 19
First Quarter
Mar 27
Full
Apr 3
Last Quarter

Hourly Weather History & Observations

Time (EDT) Temp. Windchill Dew Point Humidity Pressure Visibility Wind Dir Wind Speed Gust Speed Precip Events Conditions
12:53 AM 23.0 °F 14.7 °F 19.9 °F 88% 30.39 in 10.0 mi East 6.9 mph - N/A   Clear
1:53 AM 21.0 °F 9.9 °F 19.0 °F 92% 30.38 in 10.0 mi East 10.4 mph - N/A   Clear
3:34 AM 21.2 °F 12.6 °F 19.4 °F 93% 30.34 in 10.0 mi East 6.9 mph - N/A   Scattered Clouds
3:44 AM 21.2 °F 11.7 °F 19.4 °F 93% 30.34 in 10.0 mi East 8.1 mph - N/A   Mostly Cloudy
3:53 AM 21.0 °F 12.4 °F 19.9 °F 96% 30.37 in 10.0 mi East 6.9 mph - N/A   Overcast
4:18 AM 21.2 °F 13.6 °F 19.4 °F 93% 30.33 in 10.0 mi East 5.8 mph - N/A   Overcast
4:53 AM 21.9 °F 14.5 °F 19.9 °F 92% 30.38 in 10.0 mi East 5.8 mph - N/A   Overcast
5:53 AM 21.9 °F 13.4 °F 19.9 °F 92% 30.37 in 10.0 mi ESE 6.9 mph - N/A   Overcast
6:53 AM 21.9 °F 14.5 °F 19.9 °F 92% 30.39 in 10.0 mi SSE 5.8 mph - N/A   Overcast
8:53 AM 21.0 °F 13.4 °F 19.9 °F 96% 30.40 in 10.0 mi South 5.8 mph - N/A   Overcast
9:53 AM 21.9 °F 13.4 °F 19.9 °F 92% 30.39 in 10.0 mi South 6.9 mph - N/A   Overcast
10:18 AM 21.2 °F 11.7 °F 19.4 °F 93% 30.34 in 10.0 mi SE 8.1 mph - N/A   Overcast
10:53 AM 21.9 °F 13.4 °F 19.9 °F 92% 30.38 in 10.0 mi SSE 6.9 mph - N/A   Overcast
11:53 AM 24.1 °F 13.7 °F 19.9 °F 84% 30.36 in 10.0 mi SE 10.4 mph - N/A   Overcast
12:24 PM 24.8 °F 14.6 °F 21.2 °F 86% 30.31 in 10.0 mi SE 10.4 mph - N/A   Overcast
12:45 PM 26.6 °F 18.2 °F 19.4 °F 74% 30.32 in 10.0 mi SSE 8.1 mph - N/A   Scattered Clouds
12:53 PM 26.1 °F 16.8 °F 19.9 °F 78% 30.35 in 10.0 mi SE 9.2 mph - N/A   Clear
1:53 PM 30.0 °F 21.7 °F 19.9 °F 66% 30.31 in 10.0 mi SE 9.2 mph - N/A   Clear
2:53 PM 32.0 °F 23.6 °F 19.9 °F 61% 30.29 in 10.0 mi SE 10.4 mph - N/A   Clear
3:53 PM 32.0 °F 22.5 °F 21.0 °F 64% 30.27 in 10.0 mi SSE 12.7 mph - N/A   Clear
4:53 PM 32.0 °F 23.0 °F 21.9 °F 66% 30.25 in 10.0 mi SSE 11.5 mph - N/A   Clear
5:53 PM 32.0 °F 22.5 °F 21.9 °F 66% 30.24 in 10.0 mi SSE 12.7 mph - N/A   Clear
6:53 PM 32.0 °F 23.0 °F 21.0 °F 64% 30.23 in 10.0 mi SSE 11.5 mph - N/A   Overcast
7:53 PM 32.0 °F 22.1 °F 21.0 °F 64% 30.20 in 10.0 mi SSE 13.8 mph - N/A   Mostly Cloudy
8:53 PM 33.1 °F 23.0 °F 21.0 °F 61% 30.18 in 10.0 mi SSE 15.0 mph - N/A   Mostly Cloudy
9:53 PM 33.8 °F 26.4 °F 21.2 °F 60% 30.15 in 10.0 mi SSE 9.2 mph - N/A   Overcast
10:53 PM 33.1 °F 25.5 °F 21.9 °F 64% 30.18 in 10.0 mi SSE 9.2 mph - N/A   Overcast
11:53 PM 32.0 °F 23.0 °F 23.0 °F 69% 30.16 in 10.0 mi SSE 11.5 mph - N/A   Overcast
12:53 AM 32.0 °F 23.6 °F 23.0 °F 69% 30.15 in 10.0 mi SSE 10.4 mph - N/A   Overcast